TimeEST,TemperatureF,Dew PointF,Humidity,Sea Level PressureIn,VisibilityMPH,Wind Direction,Wind SpeedMPH,Gust SpeedMPH,PrecipitationIn,Events,Conditions,WindDirDegrees,DateUTC
12:54 AM,37.0,28.0,70,30.17,10.0,SSE,8.1,-,N/A,,Clear,160,2013-02-19 05:54:00
1:54 AM,37.0,26.1,65,30.14,10.0,SSE,10.4,-,N/A,,Clear,160,2013-02-19 06:54:00
2:54 AM,37.0,25.0,62,30.14,10.0,South,8.1,-,N/A,,Clear,180,2013-02-19 07:54:00
3:54 AM,37.0,26.1,65,30.10,10.0,South,11.5,-,N/A,,Clear,170,2013-02-19 08:54:00
4:54 AM,37.0,27.0,67,30.09,10.0,SSE,9.2,-,N/A,,Clear,160,2013-02-19 09:54:00
5:54 AM,37.9,28.0,68,30.06,10.0,SSE,10.4,-,N/A,,Clear,160,2013-02-19 10:54:00
6:54 AM,37.9,30.0,73,30.05,10.0,South,11.5,-,N/A,,Clear,170,2013-02-19 11:54:00
7:54 AM,39.9,27.0,60,30.03,10.0,South,10.4,-,N/A,,Clear,170,2013-02-19 12:54:00
8:54 AM,42.1,26.1,53,30.01,10.0,South,11.5,20.7,N/A,,Scattered Clouds,190,2013-02-19 13:54:00
9:54 AM,44.1,27.0,51,30.00,10.0,Variable,6.9,-,N/A,,Overcast,0,2013-02-19 14:54:00
10:54 AM,43.0,33.1,68,29.98,10.0,South,8.1,-,0.01,,Overcast,190,2013-02-19 15:54:00
11:54 AM,42.1,36.0,79,29.94,7.0,South,9.2,-,0.02,Rain,Light Rain,190,2013-02-19 16:54:00
12:54 PM,43.0,37.9,82,29.88,10.0,South,12.7,19.6,0.03,Rain,Light Rain,170,2013-02-19 17:54:00
2:54 PM,45.0,41.0,86,29.79,10.0,South,10.4,17.3,0.00,Rain,Light Rain,190,2013-02-19 19:54:00
3:54 PM,45.0,41.0,86,29.77,10.0,SSW,6.9,16.1,0.00,,Overcast,200,2013-02-19 20:54:00
4:54 PM,46.0,42.1,86,29.75,10.0,SSW,8.1,-,0.00,,Overcast,210,2013-02-19 21:54:00
7:54 PM,45.0,39.9,82,29.79,10.0,West,6.9,-,N/A,,Overcast,270,2013-02-20 00:54:00
8:54 PM,44.1,39.0,82,29.81,10.0,West,5.8,-,N/A,,Clear,280,2013-02-20 01:54:00
9:54 PM,43.0,32.0,65,29.83,10.0,WNW,8.1,-,N/A,,Clear,290,2013-02-20 02:54:00
10:54 PM,42.1,26.1,53,29.84,10.0,WNW,6.9,18.4,N/A,,Clear,290,2013-02-20 03:54:00
11:54 PM,39.9,21.9,49,29.85,10.0,WNW,10.4,-,N/A,,Clear,300,2013-02-20 04:54:00